loading
|
Showing default

OPS 7218 (TRANSIT 16), 2807

Orbit data source: Space-Track

OPS 7218 (TRANSIT 16), 2807 is a payload satellite owned by USN NAVAIR (US) in LEO that was launched on Thu, 18 May 1967 UTC via an SCOUT A launch vehicle from the Air Force Western Test Range (AFWTR). Payloads include a variety of satellites, spacecraft, and rockets equipped with specific instruments for various scientific and technological missions. These include communications satellites like Starlink; space stations such as the ISS; scientific satellites like the Hubble; Earth observation satellites from companies like Planet Labs, Umbra, and HawkEye 360; GPS; miniature CubeSats for education and research; and military/defense satellites.

Loading next visibility...
Next conjunction unknown
Loading greatness...
OPS 7218 (TRANSIT 16) details
Identifier
2807, 1967-048A
Orbit
LEO
Last TLE update14 hours ago
Origin
Flag of USUSN NAVAIR (US)
ManufacturerAPL
MissionDefense Navigation
Bus & MotorTRANSIT 5, Unknown motor
Mass~50 kg wet, ~50 kg dry
Launch date (UTC)
1967-05-18 (57 years ago)
Launch vehicle
SCOUT A
Launch site
Air Force Western Test Range (AFWTR)
Object type
Payload
Rocket body
Debris
Shape & HBROct Cyl + 4 Pan + 1 Rod, Unknown HBR
Radar Cross Section7.565 m², Large (>1 m²)

Expand to show TLE details & history

TLE from 14 hours ago
0 OPS 7218 (TRANSIT 16)
1 02807U 67048A   24286.26117988  .00000380  00000-0  57618-3 0  9997
2 02807  89.6803   7.9599 0018232 268.4421 154.0069 13.50577849825194
Epoch: 2024-10-12T06:16Z
Definitive object data (Epoch: 2024-10-12T06:16:05.941Z)
Latitude62.62456°
Longitude-106.77015°
Altitude1,093.18 km
Speed7.305 km/s
True Right ascension00h 34m 17s
True Declination62° 29' 25"
Sunlit
Object was in full shadow at TLE epoch
Predictive object data (real-time)
Latitude-53.72089°
Longitude-107.83609°
Altitude1,080.599 km
Speed7.316 km/s
Apparent Right ascension01h 29m 03s
Apparent Declination-48° 02' 51"
Sunlit
Object is in daylight
Predictive observer data (real-time)
Local Sidereal Time14:22:13
Azimuth134.857° SE
Elevation-77.478°
Doppler factor1
Orbital elements
Apogee1,080.757 km
Perigee1,053.608 km
Semi-major axis7,445.319 km
Eccentricity0.0018232
Inclination89.6803°
RAAN7.9599°
Arg. of periapsis268.4421°
True anomaly154.09828°
Mean anomaly154.0069°
Eccentric anomaly154.05261°
Mean motion3.37846 °/min
BSTAR0.00057618
Period106.56 mins
No data available

OPS 7218 (TRANSIT 16) Visibility forecast

Observer location: 39.9160978°, -105.1181434

Span
Click to sort rows by Start time (UTC) header in descending order
Start Az.
Max El. time (UTC)
Max El. Az.
Max El.
End time (UTC)
End Az.
11 mins2024-10-13 05:11:10.624Z143.184° SSE2024-10-13 05:16:10.624Z88.215° E32.425°2024-10-13 05:22:10.624Z15.255° NNE
9 mins2024-10-13 06:59:10.624Z226.405° WSW2024-10-13 07:03:10.624Z278.472° WNW28.314°2024-10-13 07:08:10.624Z334.993° NNW
6 mins2024-10-13 16:23:10.624Z51.326° ENE2024-10-13 16:25:10.624Z71.635° E16.512°2024-10-13 16:29:10.624Z111.511° ESE
12 mins2024-10-13 18:07:10.624Z356.718° N2024-10-13 18:13:10.624Z247.54° W43.431°2024-10-13 18:19:10.624Z192.044° SSW